Location: *
(50.6089°N, 2.2719°E)
Time: 15:45:18
(UTC+00:00)

Cosmos 968 Rocket - Pass Details

Date: 18 October 2019
Orbit: 740 x 771 km, 74.0° (Epoch: 20 November)

Event Time Altitude Azimuth Distance (km) Brightness Sun altitude
Rises 17:30:42 0° 333° (NNW) 3,258 7.0 -6.6°
Reaches altitude 10° 17:33:07 10° 329° (NNW) 2,327 6.3 -7.0°
Maximum altitude 17:38:17 57° 252° (WSW) 911 4.3 -7.8°
Drops below altitude 10° 17:43:25 10° 175° (S) 2,305 6.0 -8.6°
Sets 17:45:48 0° 171° (S) 3,225 6.7 -9.0°
